Regional Weather Roundup
Issued by NWS San Angelo, TX

Home | Current Version | Previous Version | Text Only | Print | Product List | Glossary On
Versions: 1 2 3 4 5 6 7 8 9 10 11 12 13 14 15 16 17 18 19 20 21 22 23 24 25 26 27 28 29 30 31 32 33 34 35 36 37 38 39 40 41 42 43 44 45 46 47 48 49 50
000
ASUS44 KSJT 271910
RWRSJT
WEST CENTRAL TEXAS REGIONAL WEATHER ROUNDUP
NATIONAL WEATHER SERVICE SAN ANGELO TX
200 PM CDT SUN MAY 27 2018

NOTE: "FAIR" INDICATES FEW OR NO CLOUDS BELOW 12,000 FEET WITH NO
SIGNIFICANT WEATHER AND/OR OBSTRUCTIONS TO VISIBILITY.

TXZ049-054-064>066-071>073-076>078-098-099-113-114-127-128-139-140-
154-155-168>170-272000
...LOCATIONS ACROSS WEST CENTRAL TEXAS...

CITY           SKY/WX    TMP DP  RH WIND       PRES   REMARKS
SAN ANGELO     SUNNY     99  57  24 S9        29.80F
ABILENE        SUNNY     95  62  33 SE16      29.82F
DYESS AFB      PTSUNNY   98  56  24 SE15G22   29.81F
JUNCTION       SUNNY     97  61  30 VRB3      29.83F
SWEETWATER     SUNNY     98  54  23 S10G20    29.86F
BROWNWOOD      LGT RAIN  95  61  31 S13       29.83F
COLEMAN        CLEAR    100  56  23 S14G20    29.83F
SONORA         MOSUNNY   99  55  23 S10G18    29.87F
OZONA          FAIR      97  55  24 S15G28    29.86F
BRADY          SUNNY     95  59  30 S10       29.84F
$$

TEXAS PANHANDLE/OKLAHOMA PANHANDLE

CITY           SKY/WX    TMP DP  RH WIND       PRES   REMARKS
AMARILLO       MOSUNNY   90  55  30 SE21      29.88S
BORGER         SUNNY     95  58  28 SE16G25   29.84F
CANADIAN       SUNNY     93  66  41 SE20G25   29.83F
DALHART        MOSUNNY   93  46  19 S25G33    29.86F
DUMAS          PTCLDY    91  51  25 SE17      29.87F
GUYMON         NOT AVBL
HEREFORD       PTCLDY   101  37  10 S28G37    29.86F
PAMPA          CLEAR     93  58  31 SE21      29.88F
PERRYTON       SUNNY     92  63  37 SE20G29   29.85F
$$

SOUTHERN PANHANDLE/SOUTH PLAINS/ROLLING PLAINS

CITY           SKY/WX    TMP DP  RH WIND       PRES   REMARKS
LUBBOCK        MOSUNNY  100  39  12 S25G33    29.84F
SNYDER         SUNNY     97  57  25 SE15      29.83F
CHILDRESS      SUNNY     93  65  39 SE10      29.82F
SEMINOLE       CLEAR    101  36  10 S16G28    29.84F
$$

PERMIAN BASIN

CITY           SKY/WX    TMP DP  RH WIND       PRES   REMARKS
MIDLAND        SUNNY    104  38  10 S22G28    29.82F
ODESSA           N/A    N/A N/A N/A MISG      29.83F
WINK           SUNNY    105  39  10 MISG      29.76F
$$

FAR WEST/SOUTHWEST MOUNTAINS/TRANS PECOS

CITY           SKY/WX    TMP DP  RH WIND       PRES   REMARKS
ALPINE         CLEAR     95  36  12 S14G23    29.99F
DRYDEN           N/A    101  51  18 SE10G20   29.78F
EL PASO        MOSUNNY   93  18   6 W16       29.90F
FORT STOCKTON  SUNNY    101  37  11 S18       29.81F
GUADALUPE PASS SUNNY     93  24   8 W25G32    30.01F
MARFA          SUNNY     94  37  13 MISG      29.98F
PECOS          CLEAR    102  42  12 SW9G17    29.77F
$$

DALLAS/FORT WORTH METROPLEX

CITY           SKY/WX    TMP DP  RH WIND       PRES   REMARKS
DFW AIRPORT    PTSUNNY   93  68  43 SE7       29.81F
FTW MEACHAM    MOSUNNY   97  68  38 E8        29.81F
DAL-EXECUTIVE  MOSUNNY   93  72  50 E12       29.82F
GRAND PRAIRIE  SUNNY     93  66  40 SE9       29.83F
ADDISON        MOSUNNY   93  68  43 SE9G15    29.83F
MESQUITE       MOCLDY    93  70  46 E6        29.83F
LANCASTER      PTCLDY    90  71  53 SE6       29.84F
$$

NORTH CENTRAL TEXAS

CITY           SKY/WX    TMP DP  RH WIND       PRES   REMARKS
SHRMAN/DENISON CLEAR     91  70  49 E9        29.86S
GAINESVILLE    PTSUNNY   89  72  56 SE6       29.86F
BRIDGEPORT     PTCLDY    93  64  37 SE9       29.84F
DENTON         SUNNY     94  69  44 S8        29.82F
WAXAHACHIE     MOCLDY    92  72  51 SE7       29.85S
GRANBURY       CLEAR     97  64  33 E10       29.83F
$$

WESTERN NORTH TEXAS

CITY           SKY/WX    TMP DP  RH WIND       PRES   REMARKS
WICHITA FALLS  SUNNY     94  69  44 SE16      29.81S
VERNON         CLEAR     96  66  36 SE13      29.81S
BRECKENRIDGE   CLEAR     99  58  25 S8G18     29.80F
COMANCHE       SUNNY     94  65  37 SE12      29.84F
$$

CENTRAL AND SOUTH CENTRAL TEXAS

CITY           SKY/WX    TMP DP  RH WIND       PRES   REMARKS
AUSTIN/BERGSTM MOSUNNY   94  68  42 S9        29.82F
WACO           SUNNY     95  66  38 S8        29.82F
HILLSBORO      PTCLDY    93  70  48 SE7       29.83F
TEMPLE         SUNNY     93  72  50 SE10      29.83F
KILLEEN-GRAY   MOSUNNY   93  65  39 SE6       29.82F
FORT HOOD      SUNNY     94  64  37 CALM      29.79F
GEORGETOWN     SUNNY     94  67  41 VRB7      29.85F
LAGO VISTA     FAIR      95  62  33 S9        29.86F
SAN MARCOS     SUNNY     95  68  41 VRB3      29.83F
NEW BRAUNFELS  MOSUNNY   92  67  43 S7        29.82F
RANDOLPH AFB   MOSUNNY   92  67  43 SE7       29.83F
SAN ANTONIO    MOSUNNY   93  65  39 SE10      29.83F
STINSON        SUNNY     95  67  39 E3        29.80F
PLEASANTON     NOT AVBL
LA GRANGE      SUNNY     93  72  49 SE5       29.81F
GIDDINGS       CLEAR     90  68  47 S5        29.84F
$$

EAST TEXAS

CITY           SKY/WX    TMP DP  RH WIND       PRES   REMARKS
PARIS          MOSUNNY   88  69  53 E10       29.86F
CLARKSVILLE    NOT AVBL
TYLER          PTSUNNY   92  67  43 NE8       29.83F
LONGVIEW       CLOUDY    88  72  58 VRB6      29.83F
PALESTINE      MOCLDY    91  70  49 CALM      29.84F
NACOGDOCHES      N/A     88  74  63 SE6       29.84
$$

TEXAS HILL COUNTRY AND EDWARDS PLATEAU

CITY           SKY/WX    TMP DP  RH WIND       PRES   REMARKS
LLANO          CLEAR     99  64  32 SE8G16    29.85F
HORSESHOE BAY  FAIR      97  61  30 S7        29.83F
KERRVILLE      MOSUNNY   92  68  45 SE10G18   29.86F
FREDERICKSBRG  MOSUNNY   91  62  37 S8        29.86F
ROCKSPRINGS    CLEAR     93  61  33 S15G22    29.92F
HONDO          SUNNY     93  73  52 SE12      29.83F
UVALDE         CLEAR     95  67  39 SE12      29.81F
DEL RIO        SUNNY    101  61  26 SE15      29.74F
$$

SOUTHEAST TEXAS

CITY           SKY/WX    TMP DP  RH WIND       PRES   REMARKS
COLLEGE STN    PTSUNNY   92  71  50 CALM      29.83F
CALDWELL       CLEAR     90  71  52 E3        29.84S
CROCKETT       LGT RAIN  91  72  52 SE6       29.85F
BRENHAM        MOSUNNY   92  70  49 SE6       29.83F
HUNTSVILLE     SUNNY     92  70  48 VRB5      29.83F
CONROE         MOSUNNY   91  73  55 VRB5      29.83F
HOUSTON BUSH   PTSUNNY   91  74  57 VRB3      29.82F
HOUSTON HOBBY  PTSUNNY   91  74  57 VRB3      29.81F
PERLAND        FAIR      92  73  53 N5        29.82F
WHARTON        CLEAR     90  67  46 CALM      29.83F
$$

THE UPPER TEXAS COAST

CITY           SKY/WX    TMP DP  RH WIND       PRES   REMARKS
ORANGE         FAIR      87  72  60 N5        29.84F
PORT ARTHUR    HVY RAIN  79  73  82 VRB3      29.83S
GALVESTON      FAIR      87  75  67 S10       29.84F
ANGLETON       FAIR      90  73  57 CALM      29.82F
BAY CITY       MOCLDY    89  73  58 SW3       29.82F
$$

TEXAS COASTAL BEND, RIO GRANDE PLAINS DEEP SOUTH TEXAS

CITY           SKY/WX    TMP DP  RH WIND       PRES   REMARKS
VICTORIA       SUNNY     94  67  41 VRB5      29.81F
BEEVILLE       FAIR      93  69  45 S10       29.80F
ROCKPORT       SUNNY     88  73  61 SE13      29.81F
PORT ARANSAS     N/A    N/A N/A N/A MISG        N/A
PORT LAVACA    CLEAR     90  74  58 SE12      29.82S
CORPUS CHRISTI MOSUNNY   91  73  55 VRB3      29.80F
KINGSVILLE NAS MOSUNNY   96  70  42 SE9       29.79
COTULLA        SUNNY     99  64  31 E10G17    29.77F
LAREDO         SUNNY    102  61  25 S9        29.76F
BROWNSVILLE    FAIR      97  69  40 SE15      29.79F
PORT ISABEL    FAIR      93  71  48 E17       29.78F
HEBBRONVILLE   CLEAR     95  59  30 SE9       29.80F
MCALLEN        SUNNY     99  65  32 SE7       29.77F
WESLACO        NOT AVBL
FALFURRIAS     CLEAR     99  63  30 NE8       29.77F
EDINBURG       CLEAR     98  63  31 SE10      29.78F
$$




USA.gov is the U.S. government's official web portal to all federal, state and local government web resources and services.